Location: ????????
(48.4751°N, 37.6926°E)
Time: 21:04:25
(UTC+00:00)

BREEZE-M DEB (TANK) - Pass Details

Date: 20 January 2021
Orbit: 311 x 13784 km, 49.6° (Epoch: 02 March)

Event Time Altitude Azimuth Distance (km) Brightness Sun altitude
Rises 15:29:46 0° 270° (W) 2,537 7.8 -13.1°
Reaches altitude 10° 15:32:04 10° 274° (W) 1,328 6.0 -13.5°
Maximum altitude 15:34:27 65° 358° (N) 348 1.7 -13.9°
Enters shadow 15:35:10 36° 68° (ENE) 519 2.2 -14.0°
